When you browse on this site, cookies collect data to enhance your experience and personalize the content and advertising you see.
Visit our Privacy Policy to learn more. By continuing to use the site, you agree to this use of cookies and data.
  • en France
  • Liste des pays
  • À 7 jours
  • Température de l'eau
  • Carte satellitaire
  • Carte météo
  • Widgets météo
  • user-avatar
    Se connecter

    Météo par heure à San Luis

    Ce jour, 22 Janvier, Mardi

    Heure Température Précipitation Vent Pression Humidité
    00:00 +26°C° 0 mm 5 m/s 696 mmHg 56%
    01:00 +26°C° 0 mm 6 m/s 696 mmHg 60%
    02:00 +26°C° 0 mm 6 m/s 696 mmHg 64%
    03:00 +24°C° 0 mm 6 m/s 695 mmHg 66%
    04:00 +24°C° 0 mm 6 m/s 695 mmHg 67%
    05:00 +24°C° 0 mm 6 m/s 695 mmHg 68%
    06:00 +26°C° 0 mm 6 m/s 696 mmHg 63%
    07:00 +28°C° 0 mm 7 m/s 696 mmHg 58%
    08:00 +29°C° 0 mm 7 m/s 696 mmHg 53%
    09:00 +32°C° 0 mm 6 m/s 697 mmHg 46%
    10:00 +34°C° 0 mm 4 m/s 697 mmHg 40%
    11:00 +36°C° 0 mm 3 m/s 697 mmHg 33%
    12:00 +37°C° 0 mm 2 m/s 697 mmHg 30%
    13:00 +38°C° 0 mm 2 m/s 696 mmHg 28%
    14:00 +39°C° 0 mm 1 m/s 696 mmHg 25%
    15:00 +39°C° 0 mm 1 m/s 696 mmHg 24%
    16:00 +39°C° 0 mm 1 m/s 695 mmHg 23%
    17:00 +39°C° 0 mm 1 m/s 695 mmHg 23%
    18:00 +38°C° 0 mm 2 m/s 695 mmHg 27%
    19:00 +36°C° 0 mm 3 m/s 695 mmHg 30%
    20:00 +34°C° 0 mm 3 m/s 695 mmHg 34%
    21:00 +33°C° 0.1 mm 3 m/s 696 mmHg 39%
    22:00 +32°C° 0.1 mm 4 m/s 696 mmHg 44%
    23:00 +30°C° 0.1 mm 4 m/s 697 mmHg 49%

    Demain, 23 Janvier, Mercredi

    Heure Température Précipitation Vent Pression Humidité
    00:00 +30°C° 0.3 mm 4 m/s 697 mmHg 51%
    01:00 +29°C° 0.3 mm 4 m/s 697 mmHg 52%
    02:00 +29°C° 0.3 mm 5 m/s 697 mmHg 54%
    03:00 +28°C° 0.1 mm 4 m/s 697 mmHg 56%
    04:00 +27°C° 0.1 mm 4 m/s 697 mmHg 57%
    05:00 +26°C° 0.1 mm 4 m/s 697 mmHg 59%
    06:00 +28°C° 0.1 mm 4 m/s 698 mmHg 56%
    07:00 +29°C° 0.1 mm 3 m/s 698 mmHg 53%
    08:00 +31°C° 0.1 mm 3 m/s 699 mmHg 50%
    09:00 +34°C° 0 mm 3 m/s 699 mmHg 45%
    10:00 +35°C° 0 mm 3 m/s 699 mmHg 41%
    11:00 +37°C° 0 mm 3 m/s 700 mmHg 36%
    12:00 +37°C° 0 mm 3 m/s 699 mmHg 38%
    13:00 +36°C° 0 mm 3 m/s 698 mmHg 39%
    14:00 +36°C° 0 mm 3 m/s 697 mmHg 40%
    15:00 +36°C° 0 mm 4 m/s 697 mmHg 38%
    16:00 +37°C° 0 mm 4 m/s 696 mmHg 37%
    17:00 +37°C° 0 mm 5 m/s 696 mmHg 35%
    18:00 +36°C° 0 mm 5 m/s 696 mmHg 41%
    19:00 +34°C° 0 mm 5 m/s 695 mmHg 46%
    20:00 +32°C° 0 mm 5 m/s 695 mmHg 52%
    21:00 +32°C° 0 mm 5 m/s 696 mmHg 52%
    22:00 +32°C° 0 mm 5 m/s 696 mmHg 52%
    23:00 +32°C° 0 mm 5 m/s 696 mmHg 52%

    Après-demain, 24 Janvier, Jeudi

    Heure Température Précipitation Vent Pression Humidité
    00:00 +32°C° 0 mm 5 m/s 696 mmHg 51%
    01:00 +32°C° 0 mm 6 m/s 696 mmHg 49%
    02:00 +32°C° 0 mm 6 m/s 695 mmHg 48%
    03:00 +30°C° 0.2 mm 7 m/s 695 mmHg 51%
    04:00 +30°C° 0.2 mm 7 m/s 695 mmHg 54%
    05:00 +29°C° 0.2 mm 7 m/s 695 mmHg 56%
    06:00 +31°C° 0.1 mm 8 m/s 695 mmHg 53%
    07:00 +33°C° 0.1 mm 9 m/s 696 mmHg 49%
    08:00 +34°C° 0.1 mm 11 m/s 696 mmHg 45%
    09:00 +37°C° 0 mm 11 m/s 696 mmHg 42%
    10:00 +38°C° 0 mm 11 m/s 696 mmHg 38%
    11:00 +39°C° 0 mm 12 m/s 696 mmHg 34%
    12:00 +41°C° 0 mm 11 m/s 695 mmHg 32%
    13:00 +42°C° 0 mm 11 m/s 695 mmHg 30%
    14:00 +43°C° 0 mm 11 m/s 694 mmHg 28%
    15:00 +43°C° 0 mm 11 m/s 694 mmHg 27%
    16:00 +43°C° 0 mm 10 m/s 693 mmHg 26%
    17:00 +43°C° 0 mm 10 m/s 693 mmHg 26%
    18:00 +40°C° 0 mm 9 m/s 693 mmHg 29%
    19:00 +39°C° 0 mm 8 m/s 693 mmHg 32%
    20:00 +36°C° 0 mm 7 m/s 693 mmHg 35%
    21:00 +37°C° 0 mm 9 m/s 693 mmHg 34%
    22:00 +37°C° 0 mm 11 m/s 693 mmHg 33%
    23:00 +36°C° 0 mm 12 m/s 694 mmHg 33%

    25 Janvier, Vendredi

    Heure Température Précipitation Vent Pression Humidité
    00:00 +36°C° 0 mm 12 m/s 693 mmHg 38%
    01:00 +34°C° 0 mm 12 m/s 693 mmHg 43%
    02:00 +33°C° 0 mm 11 m/s 693 mmHg 48%
    03:00 +33°C° 0 mm 11 m/s 693 mmHg 48%
    04:00 +32°C° 0 mm 12 m/s 693 mmHg 49%
    05:00 +32°C° 0 mm 12 m/s 693 mmHg 50%
    06:00 +33°C° 0 mm 11 m/s 693 mmHg 48%
    07:00 +34°C° 0 mm 10 m/s 694 mmHg 46%
    08:00 +35°C° 0 mm 9 m/s 694 mmHg 44%
    09:00 +37°C° 0 mm 8 m/s 695 mmHg 40%
    10:00 +38°C° 0 mm 6 m/s 695 mmHg 37%
    11:00 +40°C° 0 mm 4 m/s 695 mmHg 33%
    12:00 +38°C° 0.1 mm 3 m/s 695 mmHg 34%
    13:00 +38°C° 0.1 mm 3 m/s 694 mmHg 35%
    14:00 +38°C° 0.1 mm 2 m/s 694 mmHg 36%
    15:00 +38°C° 0.1 mm 3 m/s 694 mmHg 35%
    16:00 +38°C° 0.1 mm 3 m/s 694 mmHg 35%
    17:00 +40°C° 0.1 mm 4 m/s 694 mmHg 35%
    18:00 +37°C° 0.1 mm 4 m/s 694 mmHg 40%
    19:00 +35°C° 0.1 mm 4 m/s 694 mmHg 44%
    20:00 +34°C° 0.1 mm 3 m/s 694 mmHg 49%
    21:00 +33°C° 0 mm 4 m/s 694 mmHg 52%
    22:00 +33°C° 0 mm 5 m/s 695 mmHg 54%
    23:00 +32°C° 0 mm 6 m/s 695 mmHg 56%

    26 Janvier, Samedi

    Heure Température Précipitation Vent Pression Humidité
    00:00 +32°C° 0.2 mm 7 m/s 695 mmHg 58%
    01:00 +30°C° 0.2 mm 7 m/s 695 mmHg 59%
    02:00 +31°C° 0.2 mm 8 m/s 695 mmHg 61%
    03:00 +28°C° 6.2 mm 8 m/s 695 mmHg 66%
    04:00 +27°C° 6.2 mm 9 m/s 695 mmHg 72%
    05:00 +24°C° 6.2 mm 9 m/s 695 mmHg 77%
    06:00 +26°C° 1.6 mm 8 m/s 695 mmHg 72%
    07:00 +27°C° 1.6 mm 8 m/s 696 mmHg 67%
    08:00 +28°C° 1.6 mm 7 m/s 696 mmHg 62%
    09:00 +29°C° 0.1 mm 6 m/s 697 mmHg 57%
    10:00 +32°C° 0.1 mm 4 m/s 697 mmHg 51%
    11:00 +34°C° 0.1 mm 3 m/s 697 mmHg 45%
    12:00 +34°C° 0 mm 3 m/s 697 mmHg 45%
    13:00 +34°C° 0 mm 2 m/s 696 mmHg 45%
    14:00 +35°C° 0 mm 2 m/s 696 mmHg 44%
    15:00 +35°C° 0 mm 3 m/s 695 mmHg 44%
    16:00 +35°C° 0 mm 3 m/s 695 mmHg 44%
    17:00 +35°C° 0 mm 4 m/s 694 mmHg 44%
    18:00 +34°C° 0 mm 4 m/s 694 mmHg 51%
    19:00 +32°C° 0 mm 5 m/s 694 mmHg 58%
    20:00 +30°C° 0 mm 5 m/s 694 mmHg 65%
    21:00 +30°C° 0.1 mm 4 m/s 694 mmHg 65%
    22:00 +29°C° 0.1 mm 3 m/s 694 mmHg 64%
    23:00 +29°C° 0.1 mm 3 m/s 695 mmHg 64%

    27 Janvier, Dimanche

    Heure Température Précipitation Vent Pression Humidité
    00:00 +29°C° 0.1 mm 3 m/s 694 mmHg 64%
    01:00 +29°C° 0.1 mm 3 m/s 694 mmHg 64%
    02:00 +29°C° 0.1 mm 4 m/s 694 mmHg 64%
    03:00 +28°C° 0 mm 4 m/s 694 mmHg 65%
    04:00 +28°C° 0 mm 4 m/s 694 mmHg 67%
    05:00 +28°C° 0 mm 5 m/s 694 mmHg 69%
    06:00 +29°C° 0.6 mm 5 m/s 694 mmHg 64%
    07:00 +32°C° 0.6 mm 5 m/s 695 mmHg 59%
    08:00 +33°C° 0.6 mm 5 m/s 696 mmHg 54%
    09:00 +34°C° 0 mm 4 m/s 696 mmHg 49%
    10:00 +36°C° 0 mm 3 m/s 696 mmHg 44%
    11:00 +37°C° 0 mm 2 m/s 696 mmHg 39%
    12:00 +37°C° 0.1 mm 2 m/s 696 mmHg 39%
    13:00 +37°C° 0.1 mm 3 m/s 695 mmHg 39%
    14:00 +37°C° 0.1 mm 3 m/s 695 mmHg 39%
    15:00 +37°C° 0.1 mm 4 m/s 695 mmHg 39%
    16:00 +37°C° 0.1 mm 4 m/s 695 mmHg 38%
    17:00 +39°C° 0.1 mm 5 m/s 695 mmHg 37%
    18:00 +36°C° 0 mm 5 m/s 695 mmHg 41%
    19:00 +35°C° 0 mm 5 m/s 695 mmHg 45%
    20:00 +33°C° 0 mm 5 m/s 696 mmHg 48%
    21:00 +32°C° 0 mm 6 m/s 696 mmHg 54%
    22:00 +32°C° 0 mm 7 m/s 696 mmHg 59%
    23:00 +31°C° 0 mm 8 m/s 696 mmHg 64%
    Voir plus